Date,TemperatureHighF,TemperatureAvgF,TemperatureLowF,DewpointHighF,DewpointAvgF,DewpointLowF,HumidityHigh,HumidityAvg,HumidityLow,PressureMaxIn,PressureMinIn,WindSpeedMaxMPH,WindSpeedAvgMPH,GustSpeedMaxMPH,PrecipitationSumIn
2013-1-1,43.1,41.2,38.8,34.0,30.6,28.0,74,66,60,30.02,29.90,4,0,6,0.00
2013-1-2,38.6,34.2,28.9,30.0,21.7,16.0,73,61,45,30.23,29.99,4,1,9,0.00
2013-1-3,35.1,31.5,25.9,27.0,20.8,17.0,76,65,55,30.26,30.16,4,1,6,0.00
2013-1-4,43.2,37.5,33.5,28.0,24.1,22.0,75,59,47,30.21,30.10,6,1,12,0.00
2013-1-5,41.3,36.7,31.9,33.0,25.6,22.0,85,65,52,30.39,30.15,4,1,9,0.00
2013-1-6,49.9,41.8,32.6,35.0,32.4,29.0,94,71,46,30.21,30.03,3,0,8,0.00
2013-1-7,47.6,40.3,29.5,32.0,29.7,27.0,92,67,50,30.44,30.13,8,1,9,0.00
2013-1-8,51.5,41.4,30.3,38.0,34.3,29.0,94,77,55,30.44,30.37,5,1,10,0.00
2013-1-9,55.7,44.1,33.1,46.0,38.5,32.0,96,82,47,30.39,30.23,4,0,10,0.00
2013-1-10,51.9,45.2,37.2,34.0,31.2,29.0,77,59,48,30.59,30.37,8,1,8,0.00
2013-1-11,46.0,40.6,33.8,44.0,37.0,30.0,96,87,71,30.51,30.09,2,0,3,0.01
2013-1-12,52.8,44.6,41.5,46.0,42.7,40.0,97,93,78,30.17,30.10,2,0,5,0.00
2013-1-13,53.5,45.9,40.5,53.0,45.2,40.0,98,97,96,30.14,29.99,5,0,7,0.00
2013-1-14,58.6,52.6,41.4,57.0,49.4,38.0,98,89,72,30.28,29.96,7,2,9,0.01
2013-1-15,41.1,38.9,36.3,40.0,37.7,35.0,96,95,93,30.34,30.15,5,1,8,0.01
2013-1-16,41.6,38.3,35.1,41.0,37.2,34.0,96,95,94,30.15,29.86,6,0,10,0.00
2013-1-17,42.5,40.2,37.4,41.0,37.4,33.0,97,89,74,30.13,29.98,3,0,4,0.00
2013-1-18,38.8,34.7,27.8,33.0,22.8,14.0,80,63,42,30.51,30.04,9,2,16,0.00
2013-1-19,50.2,41.5,35.6,36.0,31.0,24.0,75,67,54,30.44,30.01,9,4,14,0.00
2013-1-20,58.2,47.1,39.4,36.0,28.3,17.0,65,50,31,30.08,29.82,10,3,15,0.00
2013-1-21,44.4,35.5,28.3,35.0,23.1,15.0,86,62,48,30.12,29.79,8,2,14,0.00
2013-1-22,31.7,23.1,19.3,16.0,3.1,-2.0,54,42,33,30.29,29.91,10,4,18,0.00
2013-1-23,25.9,21.7,16.8,12.0,3.7,0.0,63,46,34,30.36,30.17,10,2,14,0.00
2013-1-24,26.5,22.0,17.3,15.0,9.7,2.0,87,61,36,30.51,30.10,7,2,13,0.00
2013-1-25,25.2,22.6,20.6,19.0,10.3,4.0,88,61,45,30.51,30.09,5,1,7,0.00
2013-1-26,34.0,28.0,22.8,21.0,19.6,18.0,84,71,55,30.44,30.09,4,1,9,0.01
2013-1-27,35.9,27.5,20.7,25.0,20.3,17.0,89,75,52,30.61,30.44,4,0,6,0.00
2013-1-28,46.7,36.4,28.3,42.0,33.0,25.0,94,87,80,30.52,30.05,10,1,13,0.00
2013-1-29,63.5,49.0,37.4,52.0,44.1,36.0,96,84,66,30.14,30.01,4,0,5,0.00
2013-1-30,65.2,58.1,48.6,59.0,54.0,46.0,95,86,76,30.01,29.31,7,2,14,0.00
2013-1-31,60.7,46.7,31.7,58.0,32.7,15.0,94,60,39,29.93,29.13,10,4,26,0.00
2013-2-1,35.2,28.7,21.9,30.0,15.1,6.0,93,58,42,30.38,29.81,12,2,19,0.01
2013-2-2,31.4,25.8,19.9,28.0,14.0,6.0,90,63,45,30.40,30.02,7,2,13,0.00
2013-2-3,34.3,29.2,22.2,29.0,24.8,21.0,95,84,66,30.02,29.84,5,0,12,0.00
2013-2-4,36.2,30.5,25.5,30.0,18.4,11.0,79,61,52,30.12,29.91,8,2,15,0.00
2013-2-5,39.9,35.4,29.9,32.0,29.9,27.0,93,80,67,29.94,29.86,3,0,5,0.00
2013-2-6,45.0,36.0,27.8,33.0,28.8,24.0,95,77,52,30.36,29.94,8,1,11,0.00
2013-2-7,41.1,33.6,25.9,30.0,26.2,23.0,91,75,57,30.46,30.20,3,1,8,0.00
2013-2-8,40.1,37.4,34.1,39.0,34.7,26.0,96,90,66,30.20,29.69,8,2,21,0.01
2013-2-9,39.1,33.9,29.5,25.0,20.0,17.0,66,57,47,30.38,29.88,14,4,22,0.00
2013-2-10,39.1,32.9,24.1,31.0,20.1,12.0,82,61,35,30.50,30.29,5,1,7,0.00
2013-2-11,54.3,45.6,36.5,52.0,43.3,32.0,97,92,81,30.28,29.71,8,1,15,0.34
2013-2-12,54.3,46.3,38.7,44.0,32.2,29.0,91,59,38,29.99,29.80,4,1,10,0.00
2013-2-13,47.9,38.8,33.9,37.0,32.0,27.0,95,77,59,29.96,29.65,5,1,8,0.20
2013-2-14,47.5,38.7,33.8,34.0,32.3,29.0,95,79,51,30.04,29.75,4,1,7,0.00
2013-2-15,58.0,44.5,36.2,39.0,36.4,34.0,93,75,46,30.05,29.89,3,1,10,0.00
2013-2-16,37.9,35.4,33.7,35.0,31.8,22.0,94,87,62,30.02,29.79,10,1,11,0.10
2013-2-17,33.6,30.0,25.8,22.0,14.7,10.0,67,54,41,30.19,29.79,10,4,19,0.00
2013-2-18,37.8,30.1,23.2,29.0,14.0,8.0,77,52,35,30.39,30.19,8,2,16,0.00
2013-2-19,44.5,40.5,35.2,43.0,34.1,24.0,95,78,59,30.19,29.74,10,2,13,0.10
2013-2-20,39.4,34.0,26.8,28.0,17.9,11.0,65,52,45,30.15,29.84,12,3,15,0.00
2013-2-21,38.3,31.3,25.5,19.0,15.9,12.0,60,54,43,30.31,30.12,9,3,13,0.00
2013-2-22,34.7,32.0,29.6,32.0,24.7,19.0,95,75,62,30.39,30.22,3,1,6,0.05
2013-2-23,43.4,38.7,33.6,43.0,37.7,32.0,97,96,95,30.21,29.79,4,1,5,0.09
2013-2-24,50.2,42.2,34.8,42.0,33.9,23.0,97,75,44,30.09,29.79,7,2,18,0.00
2013-2-25,44.4,36.3,31.3,29.0,25.4,22.0,89,66,49,30.22,30.09,5,1,14,0.00
2013-2-26,49.4,38.4,28.3,48.0,35.2,27.0,96,88,77,30.23,29.59,9,2,13,0.32
2013-2-27,55.7,48.1,41.4,49.0,42.5,36.0,97,82,56,29.69,29.48,5,1,9,0.03
2013-2-28,49.4,42.8,38.0,39.0,33.8,29.0,91,72,45,29.72,29.62,5,1,11,0.12
2013-3-1,45.0,41.4,38.8,33.0,31.3,27.0,75,68,59,29.86,29.71,5,1,11,0.00
2013-3-2,38.5,35.7,31.6,27.0,24.6,21.0,72,64,56,29.87,29.80,5,2,10,0.00
2013-3-3,38.5,34.2,30.9,23.0,21.9,20.0,72,61,53,29.89,29.78,12,3,13,0.00
2013-3-4,41.9,35.6,29.3,23.0,20.4,17.0,64,55,45,30.02,29.89,7,3,13,0.00
2013-3-5,44.8,37.6,31.2,31.0,23.6,19.0,72,58,37,30.09,29.82,5,1,6,0.00
2013-3-6,39.7,37.8,32.9,38.0,35.1,28.0,94,90,66,29.93,29.54,12,4,21,0.96
2013-3-7,47.8,41.9,37.5,32.0,29.8,27.0,75,63,51,30.12,29.93,10,3,13,0.00
2013-3-8,45.2,41.3,36.3,32.0,28.0,24.0,69,60,52,30.23,30.09,10,4,19,0.00
2013-3-9,56.7,43.7,34.5,33.0,27.2,21.0,81,55,25,30.33,30.23,5,1,9,0.00
2013-3-10,58.3,44.7,32.7,40.0,32.2,26.0,89,65,31,30.35,30.25,5,1,7,0.00
2013-3-11,58.6,48.5,39.9,50.0,44.3,38.0,96,86,73,30.27,30.00,6,1,10,0.00
2013-3-12,56.4,52.1,43.2,55.0,47.6,34.0,96,85,67,29.99,29.71,7,2,11,0.74
2013-3-13,49.8,42.4,34.4,34.0,29.9,21.0,88,63,43,30.05,29.89,7,2,12,0.00
2013-3-14,45.6,38.6,33.2,22.0,19.6,17.0,60,47,34,30.11,30.00,7,3,17,0.00
2013-3-15,52.6,42.9,34.8,37.0,27.2,21.0,69,55,35,30.09,29.79,7,2,14,0.00
2013-3-16,56.7,45.8,37.2,45.0,37.1,34.0,87,72,57,29.91,29.65,5,1,7,0.00
2013-3-17,41.3,37.8,35.6,34.0,30.7,25.0,89,76,62,30.28,29.91,7,1,9,0.00
2013-3-18,40.0,37.2,32.2,38.0,30.9,21.0,96,79,56,30.33,29.86,5,1,8,0.20
2013-3-19,54.3,44.1,37.6,43.0,35.8,20.0,96,77,31,29.90,29.72,7,1,13,0.11
2013-3-20,52.0,44.3,37.6,34.0,22.4,16.0,75,44,27,30.00,29.77,7,2,12,0.00
2013-3-21,41.9,35.7,30.8,35.0,20.2,11.0,78,54,37,29.89,29.73,6,2,16,0.00
2013-3-22,46.8,37.3,30.2,24.0,19.5,12.0,65,49,38,30.00,29.88,8,2,11,0.00
2013-3-23,51.1,41.0,32.7,30.0,25.3,21.0,69,55,37,30.03,29.91,5,1,13,0.00
2013-3-24,42.3,37.4,32.4,32.0,26.6,23.0,94,67,49,30.00,29.68,3,0,5,0.01
2013-3-25,35.4,33.9,32.2,34.0,32.6,31.0,95,94,93,29.68,29.49,6,1,9,0.69
2013-3-26,49.4,41.8,34.4,37.0,33.2,30.0,95,73,51,29.96,29.69,5,1,9,0.06
2013-3-27,49.9,43.9,39.5,34.0,30.7,28.0,72,61,47,30.09,29.96,10,2,13,0.00
2013-3-28,47.3,43.5,38.4,34.0,31.2,29.0,72,63,52,30.20,30.08,5,1,13,0.00
2013-3-29,53.7,46.1,39.5,36.0,31.7,28.0,80,59,43,30.24,30.13,5,1,8,0.00
2013-3-30,58.7,46.7,36.5,38.0,33.2,28.0,89,64,32,30.22,30.12,5,0,6,0.00
2013-3-31,56.3,49.4,43.9,50.0,43.8,36.0,95,82,65,30.14,29.75,7,1,11,0.04
2013-4-1,65.2,51.2,42.7,49.0,41.3,24.0,97,72,43,29.96,29.70,9,2,13,0.02
2013-4-2,49.7,43.5,38.5,25.0,19.4,14.0,50,39,27,30.16,29.97,11,2,16,0.00
2013-4-3,51.0,43.6,37.4,23.0,19.2,16.0,49,39,27,30.37,30.17,6,2,14,0.00
2013-4-4,46.5,39.2,30.6,36.0,22.2,17.0,91,52,35,30.41,30.11,10,2,15,0.06
2013-4-5,62.7,47.7,37.7,41.0,35.8,28.0,95,69,29,30.11,29.81,6,1,8,0.61
2013-4-6,52.4,46.0,40.4,35.0,27.0,21.0,75,49,34,30.34,30.02,5,1,8,0.00
2013-4-7,62.2,52.7,41.2,47.0,42.3,32.0,87,69,54,30.31,30.01,12,2,12,0.00
2013-4-8,75.6,62.9,52.4,56.0,49.7,45.0,76,63,44,30.09,29.97,5,1,7,0.00
2013-4-9,81.9,70.2,58.4,58.0,55.0,52.0,78,60,41,30.07,29.94,6,1,9,0.00
2013-4-10,85.8,74.0,61.6,61.0,57.5,54.0,78,58,41,29.97,29.79,6,1,7,0.00
2013-4-11,79.7,66.5,51.8,64.0,57.2,49.0,91,74,52,29.88,29.76,8,2,12,0.00
2013-4-12,68.6,56.9,50.7,67.0,55.4,49.0,98,95,90,29.84,29.59,8,2,9,0.85
2013-4-13,63.9,55.7,45.5,50.0,45.9,41.0,96,72,45,29.95,29.73,4,1,10,0.01
2013-4-14,66.2,55.5,44.7,50.0,45.1,38.0,97,71,36,30.14,29.95,3,1,6,0.00
2013-4-15,62.0,56.1,52.3,50.0,47.9,46.0,86,74,59,30.29,30.12,5,1,8,0.01
2013-4-16,71.1,60.5,52.1,59.0,53.4,48.0,87,78,64,30.32,30.14,4,1,10,0.00
2013-4-17,75.7,64.7,59.8,63.0,58.1,53.0,93,80,63,30.23,30.12,5,1,7,0.00
2013-4-18,75.1,63.7,57.6,65.0,58.4,54.0,96,83,62,30.24,30.03,6,2,9,0.10
2013-4-19,76.4,67.4,53.0,67.0,62.4,51.0,95,84,70,30.03,29.62,7,2,14,0.31
2013-4-20,60.2,53.4,48.5,50.0,36.4,29.0,93,55,33,30.31,29.77,6,2,10,0.16
2013-4-21,51.0,46.5,41.3,34.0,29.2,25.0,75,52,39,30.60,30.32,4,1,8,0.02
2013-4-22,54.2,46.3,37.0,41.0,37.7,32.0,86,73,59,30.59,30.41,4,1,7,0.00
2013-4-23,58.0,50.0,45.2,46.0,42.9,40.0,90,77,61,30.40,30.14,4,1,6,0.00
2013-4-24,68.4,58.0,44.8,58.0,51.8,43.0,95,81,64,30.14,29.82,6,2,10,0.01
2013-4-25,67.1,54.5,47.6,56.0,39.9,33.0,89,59,40,30.29,29.91,8,2,16,0.00
2013-4-26,64.8,54.3,43.2,46.0,40.5,35.0,92,63,37,30.44,30.29,4,0,5,0.00
2013-4-27,68.5,57.0,44.5,49.0,41.8,33.0,96,62,29,30.43,30.30,3,0,5,0.00
2013-4-28,67.1,57.9,47.2,47.0,43.9,38.0,91,62,44,30.30,30.16,4,1,8,0.00
2013-4-29,58.6,55.4,52.5,57.0,53.6,45.0,96,93,65,30.18,30.07,4,1,8,0.31
2013-4-30,57.9,55.8,53.0,56.0,53.8,50.0,97,93,81,30.27,30.08,3,1,5,0.01
2013-5-1,68.0,56.4,47.6,50.0,45.1,39.0,89,69,36,30.43,30.27,3,1,6,0.01
2013-5-2,66.4,54.5,45.8,55.0,46.7,43.0,95,77,45,30.45,30.32,3,0,5,0.00
2013-5-3,62.1,53.7,46.8,47.0,43.7,40.0,91,71,45,30.38,30.31,4,1,7,0.00
2013-5-4,67.1,55.1,46.6,49.0,44.4,40.0,89,70,42,30.34,30.20,4,1,9,0.00
2013-5-5,62.6,51.9,45.1,49.0,43.6,40.0,85,74,58,30.25,30.16,4,1,6,0.00
2013-5-6,62.3,54.6,47.9,57.0,51.7,44.0,95,90,84,30.19,30.06,3,1,6,0.00
2013-5-7,62.4,59.0,56.3,61.0,57.8,55.0,97,96,92,30.07,29.93,3,1,6,0.88
2013-5-8,70.6,60.1,55.4,60.0,56.6,54.0,97,88,63,30.01,29.94,2,0,6,0.07
2013-5-9,72.3,61.8,53.1,61.0,57.4,52.0,98,86,63,30.00,29.92,4,0,6,0.04
2013-5-10,82.0,69.5,56.1,67.0,60.4,55.0,98,75,47,30.02,29.88,2,0,6,0.00
2013-5-11,76.1,67.5,62.7,69.0,63.8,61.0,96,88,70,29.94,29.70,4,1,10,0.59
2013-5-12,65.0,61.0,56.1,62.0,45.4,32.0,97,60,32,30.01,29.72,5,2,11,0.16
2013-5-13,60.0,54.9,51.1,36.0,31.6,27.0,54,42,32,30.14,30.02,5,1,10,0.00
2013-5-14,62.9,54.4,46.8,48.0,35.1,28.0,73,49,33,30.20,30.06,5,1,7,0.00
2013-5-15,77.7,66.0,55.6,64.0,55.5,47.0,85,70,55,30.07,29.68,4,1,8,0.00
2013-5-16,82.8,74.5,67.2,65.0,61.5,59.0,77,65,50,29.89,29.73,2,0,6,0.00
2013-5-17,79.4,70.3,59.8,60.0,52.8,42.0,91,57,30,30.16,29.89,2,0,6,0.00
2013-5-18,64.9,61.6,59.1,58.0,55.3,50.0,94,80,65,30.24,30.16,5,0,6,0.05
2013-5-19,74.0,65.9,59.3,67.0,62.9,58.0,96,90,78,30.21,30.09,1,0,3,0.00
2013-5-20,79.9,71.7,66.5,70.0,67.3,65.0,95,86,70,30.12,29.99,2,0,5,0.00
2013-5-21,74.3,69.7,67.4,69.0,66.8,66.0,94,90,83,30.01,29.96,2,0,5,0.00
2013-5-22,81.8,73.6,70.2,73.0,69.4,68.3,94,87,72,29.94,29.85,4,0,8,0.00
2013-5-23,77.8,73.4,69.8,71.0,68.4,67.0,92,84,74,29.91,29.76,4,1,12,0.00
2013-5-24,69.7,58.7,51.6,68.0,52.0,37.0,96,79,59,30.11,29.73,8,2,15,0.07
2013-5-25,63.8,56.2,47.9,42.0,38.8,35.0,70,53,40,30.14,30.06,9,3,18,0.00
2013-5-26,69.9,60.8,53.3,50.0,42.0,38.0,86,52,33,30.20,30.12,6,1,9,0.00
2013-5-27,71.7,62.4,51.8,55.0,48.8,43.0,89,63,39,30.28,30.18,1,0,3,0.00
2013-5-28,80.8,68.9,59.8,68.0,61.9,54.0,95,79,63,30.20,30.07,4,0,7,0.63
2013-5-29,85.1,75.9,67.6,72.0,67.9,65.0,93,77,59,30.13,30.07,4,0,6,0.00
2013-5-30,86.9,77.5,69.9,72.0,68.2,65.0,85,74,52,30.19,30.10,2,0,5,0.00
2013-5-31,87.2,77.9,70.1,72.0,68.4,65.0,88,73,55,30.16,30.04,3,1,8,0.00
2013-6-1,88.4,79.1,71.5,73.0,70.0,67.0,87,74,58,30.05,29.93,4,1,7,0.00
2013-6-2,85.2,77.3,69.6,73.0,69.6,68.0,95,78,63,29.94,29.83,6,1,10,0.07
2013-6-3,77.0,70.4,67.2,70.0,67.9,66.0,97,91,77,29.91,29.80,5,0,8,0.60
2013-6-4,74.7,66.9,59.4,67.0,52.8,47.0,96,63,40,30.11,29.92,5,1,7,0.00
2013-6-5,78.2,68.2,57.9,61.0,58.0,56.0,97,72,47,30.18,30.07,2,0,7,0.00
2013-6-6,75.6,68.0,59.3,65.0,60.7,57.0,95,78,62,30.10,29.88,3,0,8,0.08
2013-6-7,70.6,69.1,65.9,70.0,68.0,65.0,97,96,93,29.87,29.54,5,0,9,1.57
2013-6-8,76.0,68.9,65.8,68.0,65.5,64.0,97,89,69,30.08,29.65,2,0,8,0.04
2013-6-9,81.0,72.4,64.7,72.0,67.6,64.0,98,85,67,30.19,30.08,2,0,5,0.00
2013-6-10,80.3,73.4,69.1,75.0,71.0,66.0,97,92,79,30.10,29.82,5,1,13,0.99
2013-6-11,82.6,74.5,68.6,71.0,68.0,65.0,97,81,61,29.84,29.75,3,0,9,0.00
2013-6-12,85.3,77.3,69.7,73.0,68.6,65.0,85,75,60,29.86,29.79,1,0,4,0.00
2013-6-13,88.4,75.3,70.6,74.0,68.8,61.0,92,81,60,29.81,29.45,5,1,12,0.11
2013-6-14,74.6,66.6,58.1,62.0,58.0,54.0,94,75,53,29.95,29.55,6,1,12,0.23
2013-6-15,82.2,71.8,62.8,66.0,61.4,59.0,91,71,48,30.07,29.95,2,0,5,0.00
2013-6-16,83.6,74.8,66.9,71.0,67.8,65.0,96,79,59,30.02,29.87,4,0,7,0.00
2013-6-17,85.4,76.3,71.7,73.0,70.6,68.0,92,83,59,29.96,29.88,3,0,5,0.13
2013-6-18,75.6,70.1,62.4,73.0,68.1,62.0,97,93,83,29.92,29.78,2,0,5,1.04
2013-6-19,74.8,68.2,62.1,65.0,63.4,61.0,98,85,65,30.16,29.87,2,0,7,0.00
2013-6-20,78.5,69.9,60.8,63.0,58.1,51.0,90,67,53,30.28,30.16,4,0,7,0.00
2013-6-21,81.9,64.1,58.6,65.0,56.9,50.0,94,79,45,30.31,30.23,3,0,5,0.00
2013-6-22,84.0,73.6,62.3,69.0,65.0,61.0,96,76,51,30.26,30.15,2,0,7,0.00
2013-6-23,78.9,73.2,67.4,74.0,70.1,65.0,96,90,81,30.19,30.08,3,0,5,0.46
2013-6-24,87.9,78.3,70.8,78.0,73.0,69.0,95,84,68,30.12,30.02,3,0,7,0.03
2013-6-25,89.3,79.7,70.3,76.0,72.2,64.0,96,79,58,30.04,29.89,10,0,10,0.00
2013-6-26,88.4,79.0,70.2,77.0,71.7,65.0,92,79,59,29.95,29.79,3,0,5,0.00
2013-6-27,84.5,76.3,71.9,75.0,71.7,69.0,93,86,72,29.83,29.61,4,1,10,0.07
2013-6-28,86.6,76.4,69.5,75.0,71.6,68.0,97,86,65,29.63,29.50,3,0,14,1.37
2013-6-29,85.1,77.3,69.9,75.0,71.6,68.0,98,84,61,29.70,29.52,3,0,6,0.00
2013-6-30,83.9,78.4,76.4,76.0,74.3,73.0,93,87,78,29.86,29.70,3,0,9,0.00
2013-7-1,80.1,76.7,73.5,76.0,73.4,70.0,96,89,83,30.00,29.85,4,1,8,0.18
2013-7-2,81.4,76.2,73.0,76.0,72.8,71.0,96,89,80,30.19,30.01,3,1,11,0.42
2013-7-3,86.4,78.7,74.7,77.0,74.2,71.0,94,86,71,30.24,30.17,4,0,7,0.03
2013-7-4,87.0,79.9,75.7,76.0,74.1,73.0,93,83,66,30.27,30.18,4,1,10,0.00
2013-7-5,86.7,81.2,76.0,77.0,74.6,72.0,89,80,69,30.24,30.13,3,1,7,0.00
2013-7-6,89.7,82.1,77.3,78.0,75.3,73.0,89,80,67,30.19,30.07,4,0,5,0.00
2013-7-7,89.4,81.8,75.1,78.0,73.7,69.0,86,77,65,30.11,30.00,4,1,9,0.00
2013-7-8,84.5,77.5,72.8,74.0,71.1,69.0,91,81,62,30.10,30.03,3,0,6,0.00
2013-7-9,85.6,79.4,76.2,76.0,73.4,71.0,90,82,69,30.10,30.00,3,0,6,0.00
2013-7-10,85.9,80.0,73.5,78.0,75.2,72.0,94,85,75,30.02,29.86,3,0,12,0.08
2013-7-11,82.1,76.4,74.0,73.0,71.9,69.0,94,86,65,29.91,29.84,4,0,6,0.01
2013-7-12,74.4,71.2,69.1,72.0,69.9,67.0,97,95,83,29.99,29.87,3,0,7,1.62
2013-7-13,86.0,76.7,67.9,77.0,72.4,67.0,98,87,71,30.27,30.00,2,0,5,0.00
2013-7-14,87.9,80.6,74.7,77.0,74.2,71.0,97,82,61,30.34,30.27,3,0,5,0.00
2013-7-15,92.4,81.9,73.9,78.0,75.1,72.0,95,81,58,30.30,30.17,2,0,4,0.00
2013-7-16,90.6,83.6,78.0,77.0,74.9,72.0,94,76,55,30.21,30.15,2,0,5,0.00
2013-7-17,91.9,82.7,74.9,77.0,75.4,72.0,96,80,53,30.19,30.09,2,0,3,0.00
2013-7-18,94.5,84.8,76.7,81.0,77.7,75.0,96,80,56,30.11,29.99,1,0,6,0.00
2013-7-19,92.1,86.3,80.2,81.0,77.9,75.0,87,76,63,30.01,29.87,3,0,7,0.00
2013-7-20,90.6,84.2,80.0,79.0,76.9,75.0,86,79,67,29.90,29.79,5,1,10,0.00
2013-7-21,91.5,81.1,76.0,76.0,73.3,70.0,92,78,54,29.93,29.87,4,0,7,0.00
2013-7-22,87.9,80.3,73.9,77.0,74.5,72.0,96,83,65,29.92,29.76,4,0,6,0.00
2013-7-23,87.7,80.4,75.3,76.0,73.2,69.0,95,79,61,29.76,29.63,2,0,7,0.04
2013-7-24,82.3,77.2,72.8,72.0,69.1,63.0,90,76,64,29.88,29.67,3,0,5,0.00
2013-7-25,75.2,70.0,65.9,66.0,61.5,57.0,84,75,67,30.02,29.89,3,0,7,0.00
2013-7-26,83.4,73.0,63.7,66.0,63.0,60.0,90,72,47,30.08,30.01,2,0,4,0.00
2013-7-27,82.4,76.0,68.8,71.0,68.2,65.0,95,78,63,30.05,29.94,5,1,8,0.00
2013-7-28,84.5,76.8,71.2,75.0,71.1,67.0,96,83,68,29.96,29.88,3,0,7,0.39
2013-7-29,82.2,73.2,66.9,70.0,62.2,57.0,95,70,46,30.14,29.96,3,0,4,0.00
2013-7-30,81.8,73.4,66.1,65.0,61.6,57.0,91,68,47,30.21,30.14,3,0,4,0.00
2013-7-31,81.1,74.5,66.8,70.0,67.0,65.0,95,78,65,30.15,30.02,4,0,5,0.00
2013-8-1,75.6,72.2,69.1,73.0,70.0,67.0,97,93,78,30.02,29.80,3,0,7,0.90
2013-8-2,84.5,76.5,68.7,71.0,67.9,62.0,96,76,51,29.96,29.83,2,0,4,0.00
2013-8-3,78.7,73.2,68.7,71.0,67.7,65.0,94,83,66,29.97,29.91,2,0,3,0.03
2013-8-4,80.2,72.3,65.5,67.0,61.8,55.0,96,71,50,30.01,29.89,3,0,5,0.06
2013-8-5,79.5,71.2,62.9,62.0,58.9,55.0,84,66,43,30.10,30.00,2,0,4,0.00
2013-8-6,74.7,69.2,65.7,68.0,65.0,59.0,93,86,78,30.09,30.02,4,0,10,0.04
2013-8-7,82.0,74.0,68.3,73.0,69.6,66.0,96,86,71,30.08,30.01,3,0,8,0.12
2013-8-8,84.1,78.6,75.3,76.0,73.3,71.0,89,83,75,30.05,29.99,4,1,7,0.00
2013-8-9,89.6,80.6,75.0,78.0,75.2,73.0,95,84,66,29.99,29.84,6,0,8,0.17
2013-8-10,80.7,75.2,69.0,74.0,69.1,64.0,95,82,59,30.08,29.93,2,0,3,0.01
2013-8-11,81.9,74.4,67.9,72.0,69.8,65.0,96,86,68,30.11,30.02,1,0,3,0.00
2013-8-12,86.0,76.9,70.5,75.0,71.4,69.0,97,84,60,30.03,29.91,2,0,2,0.00
2013-8-13,82.7,77.9,70.4,76.0,71.9,68.0,95,82,64,29.91,29.74,3,0,8,0.66
2013-8-14,73.9,68.9,63.6,70.0,55.9,48.0,96,64,51,30.07,29.79,5,1,9,0.01
2013-8-15,74.3,67.2,59.7,59.0,55.1,50.0,88,67,43,30.18,30.08,3,0,3,0.00
2013-8-16,77.8,67.2,58.4,63.0,58.7,55.0,97,76,47,30.20,30.13,2,0,4,0.00
2013-8-17,78.4,68.5,59.8,64.0,61.2,58.0,94,79,57,30.27,30.19,3,0,4,0.00
2013-8-18,72.8,67.3,63.1,68.0,63.8,61.0,96,88,78,30.21,30.15,1,0,5,0.15
2013-8-19,74.0,68.3,63.7,68.0,65.0,62.0,96,89,79,30.17,30.08,1,0,4,0.01
2013-8-20,83.1,73.6,65.0,72.0,68.9,64.0,98,86,65,30.16,30.08,3,0,4,0.00
2013-8-21,85.2,77.6,70.1,74.0,72.3,69.0,97,84,66,30.20,30.08,3,0,7,0.01
2013-8-22,87.1,77.7,71.0,75.0,72.0,70.0,96,83,62,30.09,29.92,3,0,5,0.09
2013-8-23,76.9,73.6,69.0,71.0,66.1,57.0,87,77,61,30.09,29.92,2,0,4,0.00
2013-8-24,79.9,70.4,63.0,68.0,63.2,60.0,92,79,60,30.33,30.09,3,0,5,0.00
2013-8-25,78.5,68.9,59.0,62.0,59.1,52.0,97,73,41,30.42,30.27,1,0,5,0.00
2013-8-26,82.1,73.9,66.4,69.0,63.6,57.0,79,71,62,30.29,30.00,3,0,8,0.00
2013-8-27,87.1,77.9,71.9,75.0,70.2,66.0,92,77,60,30.00,29.87,1,0,4,0.00
2013-8-28,83.7,75.6,72.0,74.0,72.2,71.0,96,89,71,29.90,29.82,2,0,6,0.02
2013-8-29,82.1,74.7,68.2,74.0,70.9,65.0,97,88,73,30.02,29.83,3,0,5,0.08
2013-8-30,82.1,74.1,66.2,72.0,68.9,65.0,96,84,69,30.04,29.90,3,0,7,0.00
2013-8-31,85.9,78.8,73.3,75.0,72.0,69.0,90,80,68,29.93,29.80,3,1,7,0.00
2013-9-1,87.4,79.2,72.4,76.0,73.0,70.0,94,82,65,29.85,29.76,3,0,6,0.00
2013-9-2,86.3,78.7,73.0,76.0,73.9,71.0,95,85,70,29.80,29.72,2,0,4,0.03
2013-9-3,84.3,78.4,71.8,74.0,66.8,58.0,92,69,48,29.94,29.72,3,0,5,0.00
2013-9-4,80.6,72.2,66.2,64.0,60.0,57.0,80,66,50,30.07,29.94,3,1,6,0.00
2013-9-5,83.4,74.8,67.6,66.0,62.3,53.0,87,66,51,30.11,29.98,2,0,7,0.00
2013-9-6,74.5,65.3,58.9,56.0,52.2,48.0,87,64,47,30.25,30.12,0,0,0,0.00
2013-9-7,79.1,68.2,57.1,64.0,59.5,54.0,96,76,46,30.14,29.93,0,0,0,0.00
2013-9-8,86.0,75.2,68.5,69.0,65.5,58.0,86,72,51,30.04,29.86,0,0,0,0.00
2013-9-9,76.1,69.4,60.4,68.0,60.3,51.0,88,73,63,30.19,30.05,0,0,0,0.00
2013-9-10,86.2,77.5,70.7,74.0,71.7,68.0,93,82,66,30.19,30.09,0,0,0,0.00
2013-9-11,90.0,80.5,74.3,75.0,73.2,72.0,91,79,58,30.14,30.02,0,0,0,0.00
2013-9-12,89.0,76.4,69.4,74.0,70.6,67.0,97,83,58,30.01,29.73,2,0,9,1.19
2013-9-13,77.4,71.2,66.0,71.0,60.8,53.0,97,72,45,29.90,29.69,4,1,7,0.00
2013-9-14,68.1,62.1,54.9,54.0,51.0,49.0,87,68,53,30.16,29.90,5,0,6,0.00
2013-9-15,74.1,62.8,51.7,61.0,54.6,50.0,95,76,52,30.24,30.10,1,0,6,0.00
2013-9-16,69.7,66.8,61.9,63.0,59.4,54.0,84,77,61,30.22,30.04,6,0,7,0.00
2013-9-17,65.3,58.4,52.3,54.0,47.7,44.0,84,69,49,30.41,30.22,7,1,7,0.00
2013-9-18,69.6,57.7,47.3,53.0,49.9,45.0,96,77,55,30.35,30.20,2,0,5,0.00
2013-9-19,74.7,63.0,52.7,59.0,55.5,51.0,97,78,50,30.20,30.08,2,0,4,0.00
2013-9-20,77.5,65.9,56.3,63.0,58.9,55.0,97,79,58,30.10,29.97,4,0,8,0.00
2013-9-21,77.2,68.4,61.5,68.0,63.3,59.0,97,84,60,29.99,29.70,5,1,9,0.56
2013-9-22,71.0,65.1,61.1,63.0,56.9,49.0,96,77,55,29.92,29.71,3,0,5,0.01
2013-9-23,65.1,58.2,52.8,51.0,47.4,44.0,87,68,53,30.07,29.92,4,0,6,0.00
2013-9-24,71.3,58.0,48.9,55.0,49.7,46.0,95,76,48,30.10,29.94,4,0,5,0.00
2013-9-25,71.0,59.7,52.2,56.0,52.1,49.0,96,78,48,29.98,29.88,2,0,3,0.00
2013-9-26,73.2,62.6,55.9,60.0,56.3,54.0,96,81,53,30.07,29.92,2,0,4,0.00
2013-9-27,71.0,62.3,56.4,59.0,56.3,54.0,96,82,61,30.24,30.07,1,0,4,0.00
2013-9-28,71.3,61.5,53.7,59.0,55.3,52.0,94,81,58,30.30,30.21,2,0,7,0.00
2013-9-29,72.7,61.3,53.5,60.0,54.8,51.0,97,81,54,30.20,30.06,1,0,3,0.00
2013-9-30,72.8,60.6,51.4,58.0,53.3,50.0,96,79,51,30.09,29.99,2,0,3,0.00
2013-10-1,79.1,66.7,56.8,64.0,60.1,55.0,96,81,54,30.07,29.96,2,0,3,0.00
2013-10-2,84.0,72.0,65.1,65.0,63.0,61.0,90,75,51,30.08,29.99,2,0,4,0.00
2013-10-3,81.1,70.3,61.4,69.0,64.3,60.0,97,82,63,30.11,30.04,0,0,3,0.00
2013-10-4,85.6,72.5,63.0,69.0,65.8,62.0,98,81,52,30.08,30.00,2,0,4,0.00
2013-10-5,86.2,74.1,66.8,70.0,67.2,65.0,96,80,50,30.08,30.00,2,0,4,0.00
2013-10-6,85.4,75.6,69.6,71.0,68.3,67.0,93,79,56,30.03,29.94,4,0,8,0.00
2013-10-7,78.3,68.5,59.3,72.0,64.7,49.0,96,88,64,30.04,29.82,8,1,12,0.77
2013-10-8,62.7,59.4,56.2,52.0,49.2,47.0,82,69,62,30.27,30.05,4,1,6,0.00
2013-10-9,59.9,57.4,54.8,55.0,52.2,49.0,94,83,73,30.28,30.17,3,1,6,0.14
2013-10-10,60.3,57.0,54.4,60.0,56.0,53.0,97,96,94,30.16,29.93,3,1,8,1.05
2013-10-11,64.1,62.0,60.2,64.0,61.4,59.0,98,97,97,29.97,29.88,3,1,5,0.31
2013-10-12,64.7,61.9,60.1,62.0,60.9,59.0,98,96,90,30.14,29.95,3,0,4,0.42
2013-10-13,63.9,61.2,58.2,61.0,58.2,54.0,98,90,81,30.32,30.13,3,1,6,0.02
2013-10-14,66.3,59.0,54.1,58.0,54.8,52.0,95,86,70,30.32,30.23,3,0,6,0.00
2013-10-15,68.6,59.2,51.0,59.0,54.4,50.0,97,85,64,30.24,30.08,3,0,4,0.00
2013-10-16,68.2,62.4,58.0,63.0,59.2,55.0,95,89,80,30.07,29.93,2,0,3,0.00
2013-10-17,72.8,66.9,62.5,66.0,63.3,61.0,96,88,76,29.93,29.74,6,0,8,0.00
2013-10-18,66.5,59.2,50.1,59.0,48.3,45.0,92,68,49,30.01,29.80,4,1,7,0.00
2013-10-19,62.1,56.8,50.0,60.0,53.4,48.0,96,89,71,30.00,29.80,2,0,6,0.05
2013-10-20,62.4,54.4,46.9,52.0,42.3,38.0,95,65,42,30.10,29.85,8,1,10,0.00
2013-10-21,59.8,49.7,45.8,51.0,46.8,45.0,97,90,63,30.16,29.98,1,0,4,0.00
2013-10-22,65.1,58.9,54.2,55.0,50.2,39.0,89,73,53,29.98,29.81,2,0,5,0.00
2013-10-23,56.7,49.5,43.7,46.0,42.0,37.0,96,77,50,29.85,29.65,5,0,8,0.19
2013-10-24,52.8,47.4,44.7,39.6,34.6,28.0,75,62,44,30.13,29.89,5,1,9,0.00
2013-10-25,54.5,47.6,41.7,37.0,34.7,33.0,74,62,49,30.32,30.12,5,1,9,0.00
2013-10-26,56.5,53.7,49.8,39.0,34.2,30.0,65,48,41,30.22,29.95,7,2,11,0.00
2013-10-27,59.8,52.0,42.4,43.0,39.3,36.0,91,63,46,30.15,29.94,5,0,8,0.00
2013-10-28,61.8,49.3,41.7,48.0,42.1,36.0,93,77,55,30.28,30.15,2,0,3,0.00
2013-10-29,61.6,50.4,43.2,50.0,45.3,40.0,93,83,63,30.37,30.27,2,0,3,0.00
2013-10-30,61.4,54.8,49.5,57.0,52.7,48.0,97,93,83,30.34,30.16,2,0,5,0.03
2013-10-31,66.9,60.8,52.1,62.0,57.4,51.0,97,89,78,30.20,29.82,4,0,9,0.01
2013-11-1,68.2,65.7,62.2,63.0,61.8,59.0,96,87,79,29.81,29.61,6,1,11,0.02
2013-11-2,69.6,59.4,52.3,62.0,51.8,42.0,97,78,48,29.87,29.63,6,0,8,0.03
2013-11-3,54.2,50.2,41.0,45.0,37.1,29.0,79,62,43,30.45,29.87,6,2,10,0.00
2013-11-4,45.2,39.6,35.1,33.0,27.1,23.0,80,62,46,30.63,30.46,3,0,5,0.00
2013-11-5,60.4,49.1,39.1,50.0,43.0,33.0,91,80,60,30.61,30.47,2,0,4,0.00
2013-11-6,63.5,56.4,49.5,56.0,50.4,47.0,92,80,68,30.47,30.08,4,0,6,0.00
2013-11-7,63.6,56.7,47.3,60.0,50.2,30.0,95,80,51,30.06,29.85,10,1,13,0.01
2013-11-8,51.6,46.3,42.5,33.0,28.6,26.0,62,51,42,30.31,30.06,11,2,14,0.00
2013-11-9,52.5,46.5,35.8,38.0,32.9,28.0,87,60,46,30.36,30.04,5,1,9,0.00
2013-11-10,63.4,52.6,46.9,42.0,35.3,30.0,69,53,37,30.21,29.93,9,2,16,0.00
2013-11-11,53.5,48.7,43.2,43.0,35.3,31.0,76,61,49,30.31,30.02,5,1,7,0.00
2013-11-12,52.1,42.8,36.0,40.0,27.5,16.0,78,55,40,30.38,29.98,7,2,14,0.00
2013-11-13,42.0,37.3,32.8,24.0,21.6,19.0,66,54,42,30.46,30.37,6,2,11,0.00
2013-11-14,52.6,42.3,34.1,37.0,28.6,22.0,86,60,36,30.40,30.24,4,0,8,0.00
2013-11-15,51.4,45.6,38.6,39.0,33.9,30.0,83,65,50,30.29,30.20,2,0,6,0.00
2013-11-16,51.4,48.6,44.5,50.0,47.3,40.0,96,95,85,30.33,30.24,0,0,3,0.18
2013-11-17,64.7,55.8,46.8,58.0,53.4,46.0,98,92,77,30.24,29.78,2,0,6,0.00
2013-11-18,68.2,58.7,52.1,61.0,45.0,30.0,96,65,35,29.91,29.70,7,1,14,0.25
2013-11-19,51.7,45.9,40.1,32.0,29.0,25.0,60,52,45,30.36,29.91,11,3,13,0.00
2013-11-20,46.1,38.3,33.4,32.0,27.7,24.0,84,66,49,30.56,30.36,3,1,5,0.00
2013-11-21,48.9,43.4,34.0,42.0,37.3,30.0,91,79,71,30.57,30.40,1,0,7,0.00
2013-11-22,59.7,51.9,43.6,53.0,49.2,41.0,96,90,78,30.39,29.99,4,0,6,0.05
2013-11-23,53.6,46.0,34.4,52.0,30.9,19.0,96,57,37,30.17,30.00,9,3,18,0.00
2013-11-24,34.2,29.0,26.2,19.0,10.5,8.0,56,46,38,30.51,30.17,13,4,19,0.00
2013-11-25,37.3,30.6,24.9,23.0,15.2,12.0,68,54,43,30.59,30.37,7,2,11,0.00
2013-11-26,58.9,40.4,34.9,58.0,33.0,18.0,97,78,45,30.37,29.53,9,2,15,0.86
2013-11-27,60.1,40.6,31.6,59.0,36.7,18.0,97,87,57,30.01,29.48,17,3,17,0.72
2013-11-28,37.5,31.7,27.4,26.0,18.5,15.0,83,59,41,30.50,30.02,8,2,17,0.00
2013-11-29,40.4,33.4,26.5,27.0,24.3,21.0,90,70,50,30.73,30.47,4,0,7,0.00
2013-11-30,37.1,31.5,27.3,28.0,23.5,19.0,91,73,57,30.72,30.39,2,0,5,0.00
2013-12-1,44.8,34.6,26.1,34.0,30.1,25.0,96,84,62,30.38,30.03,2,0,4,0.00
2013-12-2,46.9,40.4,32.0,37.0,35.6,30.0,94,84,62,30.02,29.88,3,0,4,0.00
2013-12-3,54.3,43.9,39.3,39.0,36.9,31.0,90,78,45,30.00,29.88,2,0,5,0.00
2013-12-4,53.5,48.0,39.8,50.1,45.3,37.0,96,90,83,30.09,29.99,2,0,3,0.00
2013-12-5,59.8,52.7,48.5,57.0,51.4,47.4,97,95,89,30.08,29.95,7,0,8,0.01
2013-12-6,60.7,50.2,38.3,60.0,49.1,37.0,97,96,90,30.15,29.91,5,2,10,0.51
2013-12-7,43.0,38.3,33.8,37.0,32.3,24.0,96,80,66,30.53,30.11,5,2,10,0.27
2013-12-8,33.8,31.0,28.2,31.0,26.0,21.0,96,82,66,30.58,30.27,3,1,7,0.35
2013-12-9,37.2,34.5,32.0,36.0,33.3,31.0,97,95,93,30.27,30.04,4,0,5,0.66
2013-12-10,35.7,34.2,32.6,34.0,30.7,23.0,96,88,63,30.23,29.97,6,1,10,0.25
2013-12-11,39.6,32.8,27.9,28.0,22.9,18.0,94,68,51,30.42,30.23,5,1,8,0.03
2013-12-12,34.2,29.4,25.6,28.0,16.7,10.0,94,60,41,30.43,30.25,11,2,17,0.01
2013-12-13,41.7,34.2,29.3,27.0,21.2,18.0,83,60,39,30.32,30.23,6,1,12,0.01
2013-12-14,46.6,37.6,31.0,46.0,33.2,26.0,97,84,68,30.34,29.68,3,1,10,0.57
2013-12-15,47.4,39.0,33.0,39.0,32.5,24.0,96,79,59,29.95,29.62,12,1,14,0.02
2013-12-16,37.0,33.1,28.0,28.0,24.4,20.0,83,71,61,30.21,29.95,6,1,9,0.00
2013-12-17,39.7,34.2,31.2,36.0,30.2,24.0,94,85,72,30.18,29.94,3,0,6,0.04
2013-12-18,40.3,33.3,26.9,31.0,25.6,22.0,94,75,50,30.24,29.98,6,1,11,0.00
2013-12-19,54.4,43.3,27.0,34.0,30.7,24.0,93,63,44,30.22,30.09,8,1,11,0.00
2013-12-20,54.8,50.8,45.0,50.0,40.2,32.0,85,68,52,30.12,30.01,6,2,9,0.00
2013-12-21,63.3,57.0,48.1,58.0,50.8,44.0,89,80,68,30.04,29.93,9,2,13,0.00
2013-12-22,67.4,60.0,54.4,62.0,57.6,53.0,96,91,80,30.04,29.87,11,2,19,0.22
2013-12-23,61.0,53.2,40.8,61.0,50.8,32.0,98,91,71,30.21,29.94,6,1,11,0.34
2013-12-24,40.9,35.9,25.9,31.0,22.9,9.0,70,60,42,30.46,30.18,9,3,16,0.00
2013-12-25,30.0,25.9,23.2,20.0,15.1,11.0,83,64,54,30.57,30.41,6,1,11,0.00
2013-12-26,41.6,31.6,23.7,27.0,24.1,20.0,93,75,51,30.40,30.23,4,1,10,0.00
2013-12-27,45.7,36.6,27.5,33.0,27.1,22.0,94,70,44,30.44,30.33,4,0,8,0.00
2013-12-28,51.0,41.3,31.8,35.0,31.4,28.0,87,69,47,30.34,30.13,5,1,9,0.00
2013-12-29,52.2,45.5,41.3,51.0,41.2,31.0,97,86,56,30.13,29.51,10,1,10,0.69
2013-12-30,47.4,39.5,32.3,41.0,33.8,24.0,97,81,63,30.19,29.83,6,1,10,0.00
2013-12-31,45.4,35.0,28.2,31.0,22.8,18.0,76,62,48,30.34,30.11,8,2,12,0.00
2014-1-1,44.7,35.1,26.5,34.0,26.4,18.0,92,72,54,30.44,30.15,5,0,11,0.00
2014-1-2,39.3,34.4,28.5,36.0,32.6,27.0,96,93,87,30.14,29.58,3,0,5,0.04